Wind_Speed
20 22 26 30 34 40 45 45 45 46 44 43 42 37 32 31 33 33 33 34 34 35 37 38 39 40 40 40 40 41 43 45 46 44 42 42 44 44 44 44 45 47 49 50 50 50 49 49 50 50 51 52 52 53 53 54 55 56 57 58 60 61 60 59 61 62 64 64 62 65 69 67 66 68 70 70 70 70 70 71 73 74 75 75 75 76 76 77
19 22 24 28 33 39 45 46 46 47 46 43 44 42 36 32 33 34 34 34 34 35 36 37 38 39 40 41 43 44 45 47 47 46 45 46 47 48 47 47 47 47 49 50 52 52 51 52 52 53 54 55 56 56 56 57 57 59 60 62 64 64 64 64 65 66 67 68 66 67 71 71 69 70 72 73 73 73 74 76 77 78 78 79 80 80 81 81
19 21 24 27 32 37 43 47 46 47 48 46 45 45 42 37 35 35 36 36 35 36 38 39 39 40 41 42 44 45 47 48 48 48 48 48 49 49 49 49 49 49 50 52 53 55 56 57 57 57 57 57 58 58 58 59 59 60 63 65 66 67 68 67 69 72 71 72 72 71 73 74 73 72 74 77 76 75 77 79 79 80 81 82 83 83 84 85
19 21 23 26 30 35 41 46 48 47 48 49 47 47 46 43 40 38 38 38 38 38 39 41 42 42 42 44 45 46 47 48 49 50 50 51 52 52 53 53 53 53 53 54 56 58 59 60 60 60 60 60 60 60 61 62 62 63 65 67 67 69 71 70 73 76 74 75 76 75 77 77 76 75 76 79 79 78 79 81 81 82 82 84 85 85 86 87
19 20 23 25 29 33 38 44 47 48 48 49 50 49 49 47 45 43 42 41 41 41 41 42 43 43 43 44 46 47 48 48 49 50 51 52 53 54 56 57 58 58 57 57 58 59 60 61 61 61 62 62 62 63 64 66 65 65 68 69 69 71 72 72 76 79 78 79 80 80 80 80 79 79 80 82 82 82 83 83 84 85 85 86 88 89 89 90
18 20 22 24 27 31 35 40 45 48 48 49 50 51 51 51 50 48 47 46 46 45 44 44 44 44 45 45 46 47 48 48 48 49 50 52 53 55 55 56 58 59 60 60 60 61 61 62 62 62 63 63 64 65 65 66 67 67 69 70 71 72 72 73 77 79 80 81 82 83 83 82 82 81 83 85 85 85 86 86 86 87 88 88 90 91 92 92
17 19 21 23 25 29 33 37 41 46 48 49 49 50 52 53 53 53 52 51 51 50 49 48 48 47 46 46 46 47 47 47 47 46 47 49 51 53 54 55 56 57 59 60 61 62 62 63 64 65 66 66 66 67 67 68 68 69 70 70 72 74 73 75 77 79 81 82 84 84 84 85 85 84 85 87 88 89 89 89 90 90 91 91 92 93 94 94
16 18 19 21 24 27 31 35 38 42 46 48 49 49 51 52 54 55 56 55 55 55 54 54 54 53 52 51 51 51 51 51 51 50 50 50 51 52 53 54 55 56 58 59 60 61 63 64 66 67 68 69 70 71 71 71 71 71 72 71 72 73 73 74 75 77 79 81 82 83 83 85 85 85 85 87 89 90 91 91 92 93 93 94 94 95 96 96
15 17 18 20 22 25 29 34 37 40 43 46 48 49 50 51 52 54 55 57 57 57 58 58 59 59 59 59 59 59 59 60 60 60 60 60 60 60 60 60 61 62 62 63 64 66 67 68 69 71 72 73 73 73 73 72 72 73 73 73 73 73 73 74 74 75 77 78 79 80 81 83 84 85 85 86 89 91 92 93 94 94 94 95 95 96 97 97
14 16 17 19 21 22 25 30 35 39 42 45 47 49 50 51 51 52 53 55 56 57 57 58 59 60 60 61 61 62 62 63 63 64 65 65 66 67 67 68 68 69 69 70 71 71 72 73 73 74 74 75 75 74 74 74 74 74 75 75 75 75 75 76 76 77 78 80 81 82 83 85 86 87 88 89 91 93 95 96 96 96 96 97 97 98 98 99
13 15 17 18 19 21 22 25 29 34 39 44 47 49 50 50 50 50 51 52 54 55 56 57 58 59 60 60 61 61 63 63 64 65 65 65 66 67 67 68 69 70 71 72 72 73 73 74 74 75 75 75 75 75 75 75 75 75 75 77 78 77 77 78 79 80 81 83 84 86 87 89 90 92 93 94 95 96 98 98 99 100 100 101 101 102 102 102
12 14 16 17 19 20 21 23 25 28 32 37 43 47 50 52 52 52 51 51 51 52 54 55 57 58 59 61 62 63 64 65 65 66 66 67 67 67 68 69 70 71 71 72 73 74 74 75 75 76 76 76 76 76 76 76 76 76 77 78 79 80 80 81 83 83 85 88 90 91 92 93 95 97 98 98 99 101 101 102 103 105 106 106 107 107 107 108
11 12 14 16 17 19 21 23 24 26 28 31 34 39 44 48 52 55 56 55 54 53 53 54 55 56 57 59 61 63 64 66 67 69 70 71 71 72 72 73 73 74 75 75 76 77 77 77 78 78 79 79 79 79 80 81 82 81 82 83 84 85 85 86 89 90 92 94 96 98 98 98 101 103 104 104 105 106 106 107 108 109 110 111 111 111 112 112
11 11 13 14 16 17 19 21 23 25 26 28 30 33 36 39 43 47 51 54 56 57 58 58 58 59 59 60 61 62 63 65 66 68 69 72 73 75 76 78 79 79 80 80 81 82 82 82 83 83 84 84 84 85 86 88 89 89 90 91 92 94 94 94 96 98 99 101 103 104 103 103 105 107 107 108 108 109 110 111 111 112 113 113 114 114 115 115
10 11 12 14 15 17 18 20 21 23 24 26 28 30 31 33 35 37 40 43 47 50 54 57 59 61 62 63 64 65 66 66 67 68 69 70 72 74 76 78 80 81 82 84 84 85 86 86 87 88 89 89 90 92 92 93 94 94 95 96 98 100 99 99 100 102 103 105 107 107 107 107 108 109 110 110 111 112 113 113 114 115 115 116 117 117 118 119
10 11 13 15 16 17 18 19 20 22 22 23 24 25 27 28 30 32 34 36 38 41 44 47 50 53 56 58 61 63 65 67 68 70 71 73 74 75 77 79 80 82 83 84 85 86 87 88 89 90 90 91 93 94 95 96 97 96 97 99 100 101 101 101 101 103 104 105 106 107 108 109 110 111 112 112 113 114 115 115 116 117 118 119 120 120 121 122
12 13 14 16 17 18 19 19 19 19 19 20 20 20 21 23 25 26 29 31 34 36 39 41 43 46 48 51 53 55 58 60 63 65 67 70 72 74 76 78 79 81 82 83 85 86 87 88 89 89 90 92 93 94 94 96 97 97 97 98 100 101 102 102 102 104 105 105 105 107 108 109 111 112 113 114 114 115 116 117 118 119 120 121 122 123 124 126
13 14 16 17 18 18 18 17 17 16 15 15 16 17 18 19 21 23 26 29 31 34 36 38 40 42 44 46 48 50 52 54 57 59 61 63 66 68 70 71 73 74 75 77 78 79 80 81 82 83 84 85 87 87 88 90 92 92 92 93 94 96 97 98 99 101 102 101 101 103 105 106 107 108 110 111 112 113 114 115 116 117 118 119 121 122 123 125
15 16 17 17 17 16 15 13 12 12 12 13 14 16 17 19 22 24 27 30 32 34 36 38 40 41 44 45 47 49 51 53 54 56 58 59 61 62 63 64 66 67 68 69 70 71 72 73 74 75 76 77 79 80 81 83 84 86 86 87 88 89 90 91 94 96 96 95 95 97 99 100 101 102 103 104 105 106 107 108 110 111 112 113 114 116 117 118
16 16 16 15 13 12 10 10 9 10 11 13 15 17 20 22 25 27 30 32 34 36 38 39 41 43 44 46 48 49 51 52 53 54 56 57 58 59 60 60 61 62 63 64 65 66 66 66 67 68 69 71 73 75 77 78 80 82 84 85 86 87 88 89 91 93 93 93 93 94 96 97 99 99 100 101 102 103 104 105 106 107 108 109 110 111 112 113
15 14 13 11 10 9 8 8 9 11 13 15 17 20 23 25 28 30 32 34 36 38 39 41 42 44 45 46 48 50 50 52 53 53 54 54 54 55 55 55 55 56 56 56 57 58 58 59 59 60 61 63 65 67 69 72 74 77 79 82 83 85 87 88 90 91 92 91 92 93 94 96 97 98 99 99 100 102 103 104 105 105 106 107 108 109 110 111
12 11 9 8 7 7 8 9 11 13 15 17 20 23 25 28 30 32 34 36 37 39 41 42 43 45 46 47 49 49 50 50 49 49 49 48 47 47 47 47 47 47 48 48 49 50 51 51 53 54 55 56 58 59 61 62 65 68 71 73 76 78 81 84 87 89 90 90 90 92 94 95 96 97 98 99 100 101 102 103 104 105 106 107 108 109 110 110
9 8 7 6 6 7 8 10 13 15 18 20 23 26 28 30 32 34 36 38 40 42 43 44 45 46 47 47 46 45 44 43 42 42 42 42 42 42 42 42 43 43 44 44 45 47 48 49 50 51 52 52 54 54 55 55 57 60 62 64 66 68 71 74 77 80 83 83 84 86 88 90 92 93 94 95 96 97 98 99 100 101 101 102 103 104 105 106
7 6 5 5 6 8 11 13 16 18 21 23 26 28 30 33 35 37 39 41 42 44 45 46 46 46 44 42 40 39 38 38 37 38 39 39 39 40 40 40 41 42 42 43 44 44 45 46 47 48 49 49 50 51 52 52 52 54 57 58 59 61 63 65 68 71 73 74 74 76 79 80 82 84 86 88 89 90 91 92 94 95 96 97 98 99 100 102
5 4 5 6 8 11 13 16 18 21 24 26 29 31 34 36 37 39 41 43 45 46 46 45 43 40 38 37 36 36 36 36 36 36 37 37 38 38 39 39 39 40 40 41 42 42 42 43 43 44 45 46 48 49 50 52 52 52 54 56 58 60 62 64 66 68 70 71 71 72 75 76 76 79 83 85 87 88 89 91 93 94 96 97 98 100 101 102
4 5 6 9 11 14 16 19 21 24 27 29 32 34 37 38 40 42 43 45 46 45 43 40 37 36 35 35 36 35 35 36 36 36 36 36 36 36 36 37 37 37 38 38 39 40 41 41 43 44 45 46 47 49 51 52 54 55 56 57 59 61 63 66 68 70 72 73 73 74 77 78 76 78 83 86 88 90 92 93 94 96 98 99 100 102 103 105
5 6 9 11 14 16 19 22 25 27 30 32 35 37 39 41 42 43 45 45 44 41 37 35 34 34 35 35 35 35 34 34 34 35 34 35 35 35 35 35 35 36 36 38 39 41 42 43 44 45 47 48 49 51 52 54 55 57 58 60 61 63 65 67 69 72 74 76 77 78 80 82 80 81 84 87 89 91 94 95 97 98 99 101 102 104 105 107
6 9 11 14 17 19 22 25 28 30 33 35 38 40 41 42 43 44 44 41 38 36 35 34 34 34 34 33 33 33 33 33 33 33 33 33 33 33 34 35 36 37 39 40 42 43 44 45 46 47 48 49 51 52 53 55 57 59 60 62 63 65 67 69 71 74 76 77 79 80 83 84 84 84 87 88 90 92 95 97 99 101 102 103 105 106 108 109
9 11 14 17 19 22 25 28 30 33 36 38 40 41 42 43 44 43 39 36 34 34 34 34 33 33 33 32 32 32 32 32 32 32 32 33 34 34 36 37 39 41 43 43 44 45 45 46 47 48 49 51 52 54 55 56 58 60 62 64 65 67 69 71 72 75 78 79 80 82 85 87 87 87 89 91 92 94 95 98 101 103 104 106 107 109 110 112
11 13 16 19 22 25 28 30 33 35 38 40 41 42 43 44 42 38 35 34 34 34 33 33 32 32 32 32 32 31 31 31 31 31 32 34 36 37 39 40 41 43 44 44 45 46 46 47 48 49 50 52 54 56 57 58 59 61 63 65 66 68 70 72 74 75 78 81 82 83 86 89 89 90 91 93 94 95 96 98 101 103 105 107 108 110 112 113
13 15 19 22 25 28 30 32 35 38 39 41 42 43 44 41 37 34 33 33 33 32 32 31 31 31 31 31 31 30 30 30 30 31 33 34 36 38 39 40 40 41 43 45 47 49 49 49 51 51 52 53 55 57 58 60 61 63 64 66 68 69 71 73 74 76 78 81 82 83 85 88 90 91 93 94 95 96 97 98 100 101 103 105 107 108 110 111
15 18 21 25 28 31 32 35 37 39 41 41 43 43 40 36 33 33 33 32 31 30 30 30 30 30 30 29 29 29 29 31 32 34 36 37 39 40 40 41 42 42 43 44 45 48 50 51 53 54 55 56 58 59 60 62 63 64 66 68 70 71 72 74 76 77 78 80 82 83 84 86 88 90 92 93 94 94 96 97 97 99 99 101 102 104 105 106
17 20 23 27 31 33 35 37 39 40 41 43 43 40 36 33 33 32 31 30 29 29 29 29 28 28 27 27 27 29 31 33 35 36 38 39 40 41 42 43 44 44 45 45 46 48 50 52 54 55 57 58 60 61 62 64 65 67 68 69 71 72 72 73 74 75 76 78 80 81 82 83 85 87 90 91 91 92 93 95 95 96 97 98 99 100 101 103
20 22 26 30 33 35 37 39 40 41 43 43 41 36 33 33 32 30 29 29 28 28 27 27 27 26 26 27 29 31 33 35 36 37 38 39 40 41 42 43 44 45 47 49 51 52 53 54 55 56 58 59 60 62 63 65 66 68 69 69 69 70 70 71 71 71 71 73 76 78 78 79 80 82 85 87 88 89 91 92 94 95 96 97 98 99 99 100
22 25 29 32 34 37 39 40 41 42 43 41 36 33 32 31 30 29 28 27 27 27 26 25 26 26 27 29 30 32 34 35 37 38 39 40 41 42 43 44 46 47 49 51 53 55 56 57 57 58 59 60 62 63 64 66 67 67 68 68 67 67 68 69 69 69 69 69 72 75 76 76 77 78 81 84 85 87 89 90 91 92 94 95 96 97 97 98
25 28 31 34 36 38 40 41 42 43 42 37 33 32 31 29 28 28 27 27 26 26 25 25 25 26 28 30 31 33 34 36 38 39 40 40 41 43 44 46 48 49 51 52 53 54 56 57 59 60 61 62 64 65 66 67 67 66 66 65 66 66 66 67 68 68 69 68 70 74 76 76 77 77 79 82 83 85 86 87 87 89 90 92 93 94 95 95
28 31 33 36 38 39 40 41 43 42 38 33 32 31 29 28 27 27 26 26 25 24 24 24 25 27 29 30 32 34 35 37 37 38 39 40 42 44 46 48 49 50 50 52 53 55 57 59 60 62 63 64 66 67 68 67 67 65 65 65 65 65 66 66 66 67 67 67 69 72 75 76 76 76 76 78 80 82 83 84 84 85 86 87 89 90 91 93
30 33 35 37 39 40 41 42 43 39 34 31 31 29 28 27 27 26 26 25 24 23 24 25 27 29 30 32 34 35 36 37 38 39 40 42 44 46 48 48 49 50 51 53 55 57 59 61 62 63 64 65 66 67 68 68 67 67 66 66 65 65 66 66 67 67 67 66 66 68 71 74 74 74 74 75 76 78 79 80 81 81 82 83 84 86 87 88
32 34 36 38 39 40 42 43 41 35 32 31 30 28 27 27 26 25 24 23 23 24 25 27 29 30 32 34 36 37 37 38 39 40 42 44 46 47 48 49 50 51 54 56 58 59 61 62 63 64 65 66 67 68 68 67 67 66 66 66 66 65 65 66 66 67 67 67 66 63 64 70 71 70 71 72 72 73 75 76 78 78 79 80 81 82 82 83
34 36 37 39 40 41 42 42 37 32 31 30 28 28 27 26 25 24 23 23 24 25 27 29 30 32 34 36 37 38 39 40 41 42 44 46 47 48 48 50 52 55 57 59 60 61 62 62 63 64 66 67 68 69 68 67 66 65 65 65 65 65 64 63 62 64 65 66 66 61 60 65 67 66 67 69 69 70 71 72 73 74 76 77 78 79 79 80
35 37 38 39 40 41 42 39 34 31 31 29 28 27 26 25 24 23 23 24 25 27 28 30 32 34 36 37 38 39 40 41 42 44 46 47 47 48 50 53 55 57 59 60 62 63 63 63 63 64 66 67 69 69 69 68 67 67 65 63 63 62 62 60 57 58 61 63 63 60 59 61 62 62 64 65 66 67 68 69 69 71 73 74 76 77 77 78
36 37 39 40 41 42 41 36 32 31 30 28 27 26 25 24 23 22 23 24 26 28 30 32 34 36 36 37 38 40 41 42 44 46 47 47 48 50 52 55 57 59 60 62 63 63 63 62 63 64 66 67 68 68 68 66 65 66 65 63 61 60 59 57 54 53 57 60 60 58 59 61 60 60 62 62 63 65 66 66 67 68 70 71 72 73 73 74
37 38 40 40 41 42 39 34 31 31 29 28 27 26 24 23 22 23 24 26 28 30 32 34 35 36 37 38 39 40 42 44 46 47 47 48 50 53 55 57 58 60 62 63 64 63 62 61 61 62 64 65 65 65 64 62 61 61 61 60 59 57 56 54 52 51 54 57 58 56 58 61 60 59 61 62 62 63 64 64 65 66 67 67 68 69 69 70
38 40 40 41 42 41 36 32 31 30 28 27 26 25 23 22 22 24 26 28 30 32 34 35 36 37 38 39 40 42 44 46 47 47 47 50 52 55 56 57 59 61 63 64 64 63 61 60 59 60 61 61 62 61 60 59 57 56 57 58 58 57 56 54 52 52 53 56 58 55 55 60 62 61 62 63 63 63 63 64 65 66 66 66 66 67 67 68
39 40 40 41 42 39 33 31 30 29 28 27 25 23 23 23 24 25 27 30 31 33 35 36 37 38 39 40 42 44 47 48 47 48 50 52 54 56 57 58 61 63 64 64 63 62 60 58 58 59 60 60 60 60 59 58 56 56 55 56 57 57 57 55 53 53 53 55 59 59 57 60 63 63 64 65 66 66 67 68 70 70 69 69 68 68 68 68
39 40 40 41 41 36 32 31 30 28 27 26 24 23 23 24 25 27 29 31 33 34 35 36 38 39 40 42 44 46 48 48 48 50 52 54 55 56 58 60 62 64 64 64 63 61 60 58 58 59 60 61 61 61 60 59 58 58 57 57 58 58 59 58 57 57 57 58 61 65 64 63 64 66 67 68 70 70 70 72 73 73 72 71 71 70 70 70
40 40 40 41 39 33 31 30 29 27 26 25 24 23 23 25 27 29 31 32 34 35 36 37 38 39 41 44 46 47 48 49 50 52 53 54 56 57 60 62 63 65 65 65 63 61 59 59 58 58 59 61 61 62 62 61 60 59 60 60 60 61 61 62 62 63 63 62 63 67 69 68 67 69 70 69 70 71 72 73 74 74 74 73 72 72 72 72
39 40 41 40 36 31 30 30 28 27 25 24 23 24 25 27 29 31 32 34 35 36 37 38 39 40 43 45 47 48 48 50 51 52 54 55 57 59 61 63 65 66 66 65 63 60 59 59 58 59 60 60 61 62 62 62 62 61 61 63 64 65 64 63 64 66 67 68 67 68 70 71 70 71 72 72 71 72 72 74 76 76 75 74 74 74 74 74
39 40 41 38 33 31 30 29 28 26 24 24 24 24 26 28 30 32 33 35 36 36 37 39 39 41 44 46 47 48 49 51 52 53 55 57 59 61 63 65 66 67 66 65 63 60 59 58 58 59 61 61 61 62 63 63 63 63 63 64 66 68 66 64 65 66 68 70 71 70 71 72 73 73 75 75 75 74 74 76 78 78 77 77 76 76 76 76
39 41 40 36 32 31 30 28 27 26 24 24 24 25 27 29 31 33 35 36 36 37 38 39 41 44 46 48 49 49 50 52 53 55 57 59 61 63 65 67 68 68 67 65 63 61 59 58 58 58 60 62 62 62 63 63 63 63 64 65 67 69 70 68 67 69 70 71 73 74 74 75 76 77 78 79 79 78 77 78 79 80 80 80 79 78 77 77
39 41 38 33 30 30 29 28 26 25 25 24 25 26 28 30 32 34 36 37 37 38 39 40 42 45 48 49 50 50 52 54 55 57 60 62 64 66 67 69 69 69 68 66 64 61 59 58 58 59 60 61 62 62 62 63 64 64 65 66 68 70 73 72 71 72 73 75 76 78 79 79 80 81 82 83 83 82 80 80 81 82 82 82 81 80 79 78
40 40 35 31 30 29 28 28 26 25 25 25 25 27 29 31 34 36 37 37 38 39 39 41 44 47 49 51 51 52 54 55 57 60 62 64 66 68 70 70 70 69 68 66 64 62 60 58 58 59 60 61 62 63 63 63 65 66 66 67 68 71 75 77 76 75 77 79 81 82 83 84 84 85 85 86 86 85 84 83 84 84 84 84 84 82 81 80
Wind_Direction
214 208 206 205 205 202 201 202 202 204 209 212 213 216 224 230 232 236 238 238 239 241 243 243 244 245 245 245 246 249 252 254 255 256 256 253 253 256 257 258 258 256 255 254 253 253 254 256 257 257 257 257 256 256 256 256 256 255 255 255 254 254 254 253 254 254 254 253 252 255 257 255 255 257 258 258 258 258 258 259 258 258 259 259 259 259 259 260
215 211 208 206 206 206 204 204 206 207 210 213 214 215 218 223 228 232 236 238 239 241 244 245 246 247 247 248 248 250 252 255 259 260 260 258 258 259 259 259 260 259 257 256 255 255 256 259 260 260 260 260 260 259 259 260 259 258 257 257 256 256 255 254 255 254 254 254 252 253 257 257 256 256 259 260 259 260 260 260 260 261 261 261 261 261 261 261
217 213 211 209 208 208 207 207 209 210 212 214 215 217 218 218 222 227 230 233 237 240 243 245 247 249 249 250 251 252 254 257 260 262 264 264 264 263 263 262 260 260 259 258 257 257 259 261 262 262 262 261 261 261 261 262 263 262 261 260 259 259 258 257 257 256 255 256 255 254 256 257 258 258 259 261 260 260 261 261 261 262 263 263 263 263 263 263
217 215 213 212 212 211 210 210 211 213 214 216 216 218 219 218 218 220 224 227 230 235 239 243 245 248 251 252 253 254 256 258 260 262 264 265 266 268 269 268 267 265 263 261 260 260 262 263 264 264 263 263 263 263 264 265 265 265 264 263 263 262 261 260 259 259 258 258 258 257 257 258 260 261 261 262 263 262 263 264 264 264 264 265 265 265 265 265
217 216 215 215 215 215 214 213 213 215 216 217 219 220 221 221 220 220 222 223 225 228 232 237 240 243 247 249 251 254 257 259 260 261 262 264 266 267 268 270 270 270 269 267 266 265 265 265 265 264 264 264 264 265 266 267 267 267 267 266 265 264 264 263 261 261 260 260 260 260 260 261 262 264 265 265 265 266 266 266 266 266 266 266 266 267 267 267
219 219 219 218 219 219 219 218 217 218 218 219 220 222 224 225 224 223 224 224 226 228 229 232 234 237 240 243 246 249 254 258 260 262 262 264 265 266 267 268 269 270 270 271 270 270 269 269 268 268 267 266 266 266 266 267 267 267 267 267 267 266 265 264 264 263 263 262 262 262 263 263 264 265 266 267 267 267 267 267 267 267 267 267 267 267 268 268
221 221 221 221 222 222 224 224 223 222 222 222 223 224 226 227 228 229 229 230 231 232 232 233 233 235 236 239 242 244 248 252 255 258 260 261 263 265 266 266 267 267 268 269 270 270 270 271 271 271 271 271 271 271 270 270 270 269 268 268 267 267 266 265 264 265 265 264 264 264 265 265 265 265 266 267 267 267 267 267 267 267 266 267 267 267 268 268
222 223 223 223 223 224 225 228 229 228 227 227 227 228 228 229 231 232 234 236 237 238 238 238 238 238 239 240 242 243 245 248 251 253 255 256 258 260 262 263 264 264 265 266 266 267 267 268 269 270 271 272 272 273 273 273 272 272 271 270 269 269 267 266 265 265 266 266 266 266 266 266 266 266 265 266 267 267 267 268 268 267 267 266 266 267 267 268
222 224 224 224 224 225 226 227 230 231 232 231 232 232 233 233 234 235 237 238 240 241 242 243 243 244 244 246 247 249 251 252 254 255 256 257 257 258 259 260 261 262 262 263 264 264 265 265 266 267 269 270 271 271 272 272 272 271 271 271 270 270 269 268 268 268 268 268 268 268 268 268 267 267 267 267 268 268 269 270 270 270 269 269 268 268 268 268
225 225 225 226 227 227 228 229 230 231 233 234 234 235 237 237 238 240 241 242 243 244 245 246 247 248 249 250 252 254 255 257 258 259 260 261 261 261 260 260 260 261 262 263 263 264 265 265 266 267 268 269 270 270 271 271 271 271 270 270 270 270 269 269 270 270 270 270 270 270 270 270 270 270 270 269 270 270 271 272 272 272 272 272 271 271 270 270
233 229 228 229 230 230 232 232 233 233 233 234 236 237 238 239 239 241 243 245 246 248 249 250 251 251 252 253 255 256 257 258 259 260 261 262 262 262 262 262 262 262 263 263 264 264 265 265 266 267 267 268 268 269 269 269 269 269 268 268 268 269 269 269 269 270 270 270 271 271 271 271 272 272 272 272 272 272 272 273 273 273 273 273 273 272 271 271
242 238 235 234 234 234 235 236 237 237 237 237 238 238 240 240 241 241 242 244 245 247 249 251 252 253 254 255 256 256 257 257 258 258 259 259 259 260 260 261 262 262 262 262 263 263 263 263 264 264 265 265 265 265 266 266 266 265 265 265 266 266 267 267 267 267 267 268 269 269 270 270 271 271 271 271 271 272 272 272 272 272 273 273 273 272 272 271
251 248 245 243 241 241 240 241 241 242 242 242 243 243 243 243 243 244 245 245 246 247 248 250 251 252 253 254 255 256 257 257 258 258 259 259 259 259 259 259 260 260 261 261 261 262 262 262 262 263 263 263 263 263 264 264 264 264 264 265 266 266 266 266 267 267 267 267 268 269 269 269 270 270 270 271 271 271 271 271 271 271 272 272 272 272 272 271
254 254 254 253 251 249 249 249 248 248 248 248 248 248 248 248 248 248 249 250 250 251 252 253 253 254 255 254 255 255 256 257 258 258 259 259 260 260 260 260 260 260 261 261 262 262 262 263 263 263 264 264 264 264 264 264 265 265 266 266 267 267 267 267 267 268 269 269 270 270 270 270 270 270 270 271 271 271 271 271 271 271 271 271 271 271 271 271
256 259 260 260 260 260 260 259 258 257 256 255 255 254 254 254 254 253 253 253 254 254 255 255 256 257 258 258 258 258 258 259 259 260 260 261 261 261 261 261 261 262 262 262 263 263 264 264 265 265 265 266 266 266 266 266 267 267 268 268 268 268 269 269 268 268 269 269 270 270 271 270 270 270 270 270 270 270 270 270 270 271 271 271 271 270 270 270
261 264 267 268 269 269 268 266 265 264 264 263 262 261 260 259 258 258 257 257 256 256 256 257 258 259 259 260 260 261 261 261 262 262 263 263 263 263 263 263 263 263 264 264 265 265 265 265 266 266 266 267 267 267 267 267 268 268 268 269 269 269 269 269 269 268 268 268 268 269 269 269 269 269 270 269 269 269 269 269 269 270 270 270 270 270 270 270
271 274 275 276 276 275 274 273 273 272 272 270 269 267 265 264 262 262 261 261 261 261 261 262 262 263 263 263 264 264 265 265 265 265 265 265 265 265 266 266 266 267 267 267 267 268 268 268 268 268 268 268 268 268 268 269 269 268 268 269 270 270 270 270 269 269 269 269 269 269 269 269 270 270 270 270 270 270 270 270 270 270 270 270 270 270 270 270
280 281 281 281 281 280 281 281 280 281 280 279 277 276 274 273 271 270 269 269 268 269 269 270 270 271 271 271 271 271 270 270 270 269 269 269 269 269 269 270 270 270 271 271 271 271 271 271 271 271 270 270 271 271 270 270 271 271 270 270 270 270 271 271 271 270 270 270 270 270 270 271 271 271 271 271 271 271 271 271 271 271 271 271 271 271 271 271
284 284 285 285 285 285 286 287 290 290 289 287 285 283 282 280 279 277 277 278 278 279 279 280 280 279 278 277 277 276 275 275 274 274 274 274 274 274 274 274 275 275 275 275 275 274 274 274 274 273 273 273 272 272 272 272 272 272 272 271 271 271 271 271 272 272 272 272 272 272 272 273 273 273 273 273 273 273 273 273 273 273 273 273 273 273 273 273
288 289 289 287 287 288 292 295 296 294 292 290 289 287 285 284 283 283 284 285 286 286 285 284 283 282 281 281 280 280 280 279 279 279 279 279 279 279 279 279 279 279 278 278 278 278 278 277 277 276 275 275 274 273 273 273 273 273 273 273 273 272 272 272 272 272 273 273 273 273 273 274 274 274 274 274 275 274 274 274 274 274 274 274 274 274 274 274
291 289 286 286 289 294 298 297 296 295 294 292 290 289 289 288 289 289 289 290 289 288 288 287 286 286 285 285 285 285 284 284 284 283 282 282 282 282 282 282 281 281 281 280 280 280 281 280 280 279 279 278 277 276 275 274 274 273 273 273 273 273 273 273 273 273 273 274 274 274 274 274 274 275 275 275 275 275 275 275 275 275 275 274 274 274 274 274
286 284 285 291 297 299 299 299 300 300 298 296 295 294 293 293 294 294 294 294 294 293 292 292 292 291 290 290 289 288 288 287 286 286 285 285 284 284 284 284 283 283 282 282 282 282 282 282 282 282 282 281 280 279 278 278 277 276 275 275 274 274 273 273 273 273 274 274 274 274 274 274 274 274 275 275 275 275 275 275 275 275 275 275 275 275 275 275
280 284 291 297 298 299 303 305 305 303 301 300 300 299 299 299 300 300 300 299 299 298 297 296 295 294 293 292 291 291 290 289 289 288 288 288 288 288 288 288 287 287 287 286 286 286 286 286 285 285 285 285 284 283 282 282 282 281 280 279 278 278 277 276 276 275 275 275 275 275 276 276 276 276 276 276 276 276 276 276 276 276 276 276 276 276 276 276
282 289 292 294 301 306 308 307 306 305 304 303 304 304 305 305 305 304 303 303 301 300 299 299 297 296 295 294 294 293 293 292 292 291 291 291 292 292 292 293 293 292 292 292 291 290 290 290 290 289 289 288 288 287 287 286 285 285 286 285 284 283 282 281 280 280 279 279 278 278 278 278 279 279 279 279 278 278 278 278 278 277 277 277 277 277 277 277
282 285 289 299 306 308 307 307 307 306 306 307 308 309 309 309 308 306 305 304 303 302 301 300 299 298 298 297 297 297 296 295 295 295 295 296 296 297 297 297 296 296 296 296 295 295 294 293 293 293 293 292 292 292 291 290 289 288 288 288 288 287 287 286 285 284 283 282 281 281 280 279 280 281 281 281 280 280 280 280 280 279 279 279 279 279 279 279
277 288 299 307 308 307 307 308 308 309 310 312 312 312 311 310 308 307 306 305 304 303 302 302 301 301 300 300 299 299 299 299 299 300 301 301 301 301 301 300 300 300 301 301 300 299 298 298 298 297 297 296 296 295 295 294 293 292 291 291 290 289 289 288 288 287 286 286 285 284 282 281 281 280 280 281 281 281 281 280 280 280 280 280 280 280 279 279
283 298 307 309 309 310 311 311 312 314 315 315 314 312 311 309 308 308 307 306 305 304 304 303 303 302 302 302 302 302 303 304 305 305 306 306 306 306 307 306 306 305 305 304 303 302 302 302 301 301 301 300 299 299 298 297 296 295 295 294 293 292 291 290 290 289 288 288 287 286 285 285 284 283 281 281 282 282 282 281 281 281 280 280 280 279 279 279
295 306 311 312 314 315 316 316 317 317 317 315 313 312 311 310 309 309 308 307 306 306 305 305 305 304 304 305 306 307 308 309 309 309 310 311 312 312 312 311 310 309 309 308 307 306 306 306 306 305 304 303 302 301 301 300 299 298 297 296 295 294 293 292 291 290 289 288 288 287 286 286 285 284 283 282 282 282 282 282 281 281 281 280 280 280 279 279
308 313 315 318 320 320 320 319 318 317 316 314 313 312 312 312 311 311 310 309 308 307 307 307 307 308 308 310 311 312 313 314 315 316 317 317 316 315 314 314 314 313 312 312 310 309 309 308 307 307 306 305 304 303 302 300 299 298 297 296 295 294 293 292 291 290 290 289 288 287 286 286 285 284 283 282 282 281 281 280 280 280 280 280 280 280 279 279
315 318 321 323 324 323 321 319 317 316 316 315 314 314 314 314 313 312 311 311 310 310 310 310 311 312 314 315 317 318 320 321 322 321 320 318 317 317 316 316 315 314 313 312 311 310 310 309 309 308 307 306 305 303 302 301 299 298 297 296 295 294 293 292 291 290 289 289 288 287 286 286 285 284 282 281 281 280 279 278 278 278 279 279 279 278 278 278
318 322 325 326 325 322 320 318 317 317 316 316 317 317 316 315 314 314 313 313 312 312 313 314 315 317 319 320 322 323 324 324 322 319 317 317 317 316 315 314 314 314 313 314 313 313 312 311 310 309 307 306 304 303 302 301 300 299 297 296 295 294 293 292 291 289 288 287 287 286 285 285 285 284 283 282 282 281 280 280 279 279 279 279 279 279 279 279
323 326 327 327 325 321 319 318 318 318 318 319 319 319 318 316 316 315 314 314 315 315 317 318 320 321 322 324 325 325 324 323 322 321 320 319 319 318 318 317 316 316 315 314 313 312 312 311 310 309 308 307 306 304 303 302 301 300 299 298 297 296 295 294 293 292 291 290 290 289 288 287 287 287 287 286 286 286 285 285 284 283 283 282 282 281 281 281
327 327 326 325 323 321 320 320 319 320 321 321 321 320 319 318 317 316 316 317 318 319 320 322 323 324 325 326 326 325 325 324 323 322 321 321 320 319 319 318 318 317 316 315 313 312 311 311 311 310 310 309 308 307 306 305 304 303 302 301 300 298 297 296 295 295 294 293 292 291 291 290 290 290 289 289 289 289 288 287 287 286 285 285 284 283 283 283
328 326 325 324 322 321 321 321 322 323 323 323 322 321 320 319 318 318 319 320 322 324 325 325 326 328 328 328 327 326 325 324 323 322 322 321 320 320 319 319 319 318 318 317 317 316 315 314 313 313 312 312 311 310 309 308 307 306 305 303 302 301 300 298 297 296 294 294 293 292 292 291 290 290 289 289 289 289 289 288 288 288 287 287 286 286 286 285
327 326 325 323 322 322 322 323 325 325 324 323 322 321 320 320 320 321 322 324 326 327 328 330 331 330 329 327 326 326 324 324 323 323 323 322 322 322 322 321 321 320 320 319 319 318 318 317 317 317 316 315 314 314 313 312 311 309 308 306 305 304 302 301 300 299 297 296 295 294 293 292 292 291 291 291 290 290 289 289 289 289 289 288 288 288 288 287
327 326 325 324 324 323 324 325 326 325 324 324 323 321 321 322 323 324 326 328 329 330 331 332 330 328 326 326 325 325 325 325 325 324 324 324 323 323 323 322 322 322 321 321 320 320 320 320 320 320 319 318 318 317 316 315 314 312 311 309 308 307 305 304 303 302 302 301 299 298 297 296 295 295 294 293 292 292 291 291 291 291 290 290 290 290 290 290
327 326 325 324 324 325 326 327 326 326 325 324 322 323 325 326 327 328 330 331 331 332 331 330 327 327 326 326 326 327 327 327 326 325 325 325 324 324 324 324 323 323 322 322 323 323 322 322 322 322 322 321 321 320 319 318 317 315 314 313 312 310 309 308 306 305 304 303 301 300 299 298 297 297 296 295 294 294 294 293 292 291 291 291 290 290 290 289
327 326 325 324 325 326 327 327 327 326 325 324 325 327 328 329 330 332 333 332 332 331 329 328 328 328 328 328 329 329 328 327 327 327 327 327 326 326 325 324 324 324 324 324 324 324 323 323 323 323 323 322 322 322 322 321 320 319 318 316 315 314 312 310 309 308 306 304 303 302 301 300 300 300 299 297 296 295 294 294 293 292 291 291 290 289 289 289
326 325 325 325 327 328 328 328 327 326 326 327 329 329 330 331 333 333 333 333 332 330 330 330 330 330 331 331 330 329 329 329 329 329 328 328 327 326 325 325 325 325 325 325 325 324 324 323 323 323 324 324 325 325 325 324 322 321 319 318 317 316 314 313 311 310 309 307 306 304 303 301 301 301 300 299 298 298 297 297 297 297 296 295 294 293 293 292
325 325 325 327 328 329 329 328 328 327 328 330 330 331 332 333 334 334 334 333 332 331 331 332 332 333 333 332 331 330 330 330 330 330 329 328 327 327 326 327 327 327 326 326 326 325 325 324 324 325 325 326 327 327 326 325 324 322 321 320 319 318 316 314 313 311 309 307 306 306 304 302 302 304 304 304 305 305 304 304 304 303 302 301 299 299 299 298
325 325 327 328 329 329 329 329 329 329 330 331 332 333 334 334 335 335 334 332 332 333 333 334 335 335 333 332 332 332 331 331 331 330 329 328 328 328 328 328 328 328 328 328 327 327 327 326 326 326 327 328 328 328 328 327 326 324 323 322 320 318 317 315 315 312 310 308 308 308 308 307 309 311 311 311 311 310 309 309 309 308 306 305 305 305 305 304
325 326 328 329 330 330 330 330 330 331 332 332 333 334 335 335 335 333 332 332 333 334 336 337 336 334 333 333 333 332 332 331 330 330 329 328 329 329 329 329 329 329 330 329 329 328 328 327 328 328 329 330 330 330 329 328 327 325 325 324 322 321 319 318 318 316 314 313 314 317 317 315 316 317 315 314 314 313 313 313 312 311 310 310 310 309 308 307
326 328 329 330 330 330 331 330 331 332 332 334 335 335 335 334 333 332 333 334 336 338 338 337 335 334 334 334 333 333 332 331 330 329 329 329 330 330 330 330 331 331 331 331 330 330 329 328 329 330 330 330 331 330 329 328 328 327 326 325 323 322 321 322 324 323 322 322 322 324 324 320 319 321 319 319 319 319 318 318 316 315 314 313 312 311 310 309
328 329 330 330 330 331 331 331 331 333 334 336 336 335 333 333 334 334 335 336 339 339 337 335 334 335 335 334 333 333 332 331 330 330 330 330 330 331 331 332 332 332 332 332 331 330 329 329 329 330 329 330 330 330 330 329 328 328 328 327 326 327 329 331 333 331 331 329 326 327 329 326 324 325 325 324 324 323 323 322 320 319 318 317 316 315 314 313
328 329 330 330 331 331 331 331 333 335 335 336 335 334 334 334 334 335 337 339 340 338 336 336 336 336 335 335 334 334 332 332 331 330 330 331 331 332 332 333 333 333 333 333 332 331 330 330 329 329 330 330 331 331 331 331 330 330 332 333 334 335 337 339 339 337 337 336 332 331 334 334 332 331 331 331 330 329 330 329 327 326 325 324 323 321 319 318
328 329 329 330 331 331 331 333 335 336 336 336 335 335 334 334 335 337 339 339 339 338 337 337 336 336 336 336 335 334 333 332 331 331 331 332 332 333 334 334 334 334 334 333 333 333 331 330 330 331 332 332 333 334 335 335 336 337 339 341 342 342 343 345 345 343 343 343 342 339 339 340 339 338 337 338 337 336 336 335 333 331 330 329 327 325 324 323
327 328 330 331 332 332 332 335 336 337 337 336 335 334 334 335 337 338 339 339 338 338 338 337 337 337 337 337 336 335 334 333 332 332 332 333 334 334 335 335 335 335 335 334 334 334 332 332 332 333 333 334 336 338 339 340 341 343 344 345 346 347 349 350 350 349 348 348 348 346 344 343 344 343 342 341 341 340 339 338 336 334 333 332 331 329 328 327
328 329 331 332 332 332 334 336 337 338 337 335 334 334 335 336 338 338 338 338 338 338 338 338 338 338 337 337 336 335 335 334 334 334 334 335 335 336 336 336 336 336 336 335 335 335 334 333 333 334 336 337 339 340 342 344 345 347 348 349 349 349 351 353 353 353 352 351 351 350 348 347 347 346 344 343 343 342 342 341 339 337 336 335 334 333 332 330
328 330 331 332 332 333 336 337 337 337 336 334 334 335 336 337 337 337 338 338 339 339 338 338 338 338 338 337 337 336 336 336 336 336 336 337 336 337 336 336 336 336 336 336 335 335 335 335 335 336 338 340 341 343 345 347 348 348 349 351 351 350 350 352 354 354 354 353 352 352 351 350 349 348 347 346 345 344 345 344 342 340 339 338 337 336 335 333
329 331 332 332 333 335 337 337 336 335 335 334 334 335 336 336 337 337 338 339 339 339 338 338 338 338 338 338 338 337 337 337 337 337 338 337 337 337 337 337 337 337 336 336 336 336 336 336 337 338 340 342 343 345 346 348 348 349 350 351 352 351 350 351 353 355 355 355 353 353 352 352 351 351 350 348 347 346 346 346 344 343 342 341 340 338 337 336
330 331 332 332 333 336 336 336 336 334 334 333 333 335 336 336 336 337 338 338 339 338 339 338 338 338 339 339 338 338 338 338 338 338 338 338 337 337 337 337 337 337 336 336 336 336 337 338 338 340 342 343 344 345 346 348 348 350 351 352 352 352 351 350 353 354 355 356 356 355 354 354 353 353 353 351 349 347 347 347 346 345 344 343 341 340 338 337
331 332 332 332 334 336 336 335 335 333 333 333 333 334 335 336 337 337 338 338 338 338 338 338 338 339 339 339 339 338 338 338 338 338 338 338 338 338 337 337 337 337 337 336 337 337 337 338 340 341 342 344 345 345 346 348 350 351 352 352 352 353 352 351 352 354 355 356 356 356 356 355 355 354 354 353 351 349 348 349 348 346 345 344 343 341 340 339
Height
10692 10693 10695 10697 10699 10702 10704 10707 10709 10710 10711 10712 10714 10715 10716 10716 10716 10716 10717 10717 10718 10718 10719 10719 10720 10720 10721 10721 10721 10721 10721 10721 10721 10722 10723 10723 10723 10724 10724 10724 10724 10724 10724 10724 10724 10724 10724 10724 10724 10724 10724 10724 10724 10723 10723 10722 10722 10722 10721 10720 10717 10716 10719 10720 10717 10716 10713 10714 10717 10711 10705 10709 10713 10708 10705 10707 10707 10707 10708 10707 10703 10701 10701 10701 10701 10699 10700 10698
10690 10692 10694 10695 10697 10699 10702 10704 10707 10708 10709 10710 10712 10713 10714 10714 10715 10715 10715 10715 10715 10716 10716 10716 10717 10718 10718 10718 10718 10718 10718 10717 10718 10718 10719 10719 10719 10720 10720 10720 10720 10720 10720 10720 10720 10720 10720 10720 10720 10720 10719 10719 10719 10718 10718 10717 10717 10717 10716 10714 10711 10712 10713 10714 10711 10709 10707 10705 10709 10706 10699 10700 10705 10704 10700 10698 10699 10702 10700 10697 10695 10695 10695 10692 10692 10691 10691 10690
10689 10690 10692 10694 10695 10697 10699 10702 10704 10706 10707 10708 10709 10710 10712 10712 10713 10713 10713 10713 10713 10714 10713 10713 10714 10714 10715 10715 10715 10715 10715 10714 10714 10715 10714 10715 10715 10715 10715 10716 10716 10716 10716 10716 10716 10715 10715 10715 10715 10715 10714 10714 10713 10713 10713 10711 10712 10712 10709 10707 10707 10706 10705 10709 10705 10699 10701 10699 10699 10700 10695 10693 10695 10698 10696 10689 10690 10695 10690 10687 10688 10689 10686 10683 10682 10683 10681 10680
10687 10689 10690 10692 10693 10695 10697 10699 10701 10703 10705 10706 10707 10708 10709 10710 10711 10711 10711 10711 10711 10712 10711 10711 10711 10711 10711 10711 10711 10711 10711 10711 10711 10711 10711 10711 10711 10710 10710 10710 10710 10711 10711 10711 10711 10710 10710 10709 10709 10709 10709 10709 10707 10707 10707 10705 10706 10706 10702 10700 10702 10699 10697 10702 10697 10690 10695 10692 10690 10691 10688 10687 10689 10691 10689 10682 10681 10685 10682 10680 10680 10679 10678 10675 10672 10672 10671 10670
10686 10688 10689 10690 10692 10693 10695 10697 10699 10700 10702 10703 10704 10705 10706 10707 10708 10708 10708 10708 10708 10709 10709 10709 10709 10709 10709 10709 10708 10707 10707 10707 10707 10707 10707 10707 10706 10706 10706 10705 10704 10704 10704 10704 10704 10704 10703 10703 10703 10703 10702 10703 10702 10701 10701 10699 10699 10699 10695 10694 10694 10691 10691 10694 10688 10683 10686 10684 10682 10682 10680 10681 10683 10684 10679 10674 10673 10674 10673 10672 10670 10668 10668 10667 10662 10660 10660 10660
10685 10687 10688 10689 10691 10692 10693 10695 10696 10698 10699 10701 10702 10703 10703 10704 10705 10705 10705 10705 10706 10706 10706 10707 10707 10707 10706 10706 10706 10705 10704 10704 10704 10703 10703 10703 10702 10701 10701 10700 10699 10698 10698 10697 10697 10696 10696 10696 10695 10696 10695 10696 10695 10694 10695 10692 10692 10692 10688 10687 10685 10683 10685 10685 10679 10677 10677 10676 10675 10673 10673 10674 10676 10677 10670 10665 10665 10663 10662 10662 10661 10658 10657 10656 10653 10650 10649 10648
10684 10685 10687 10688 10690 10691 10692 10693 10695 10696 10697 10698 10699 10700 10701 10701 10702 10702 10702 10702 10703 10703 10703 10703 10703 10704 10703 10703 10703 10703 10703 10701 10700 10700 10699 10698 10697 10696 10695 10694 10694 10693 10692 10691 10691 10690 10689 10689 10688 10688 10687 10688 10687 10686 10687 10685 10684 10683 10680 10680 10677 10675 10676 10675 10671 10669 10668 10667 10665 10664 10666 10665 10666 10668 10663 10657 10654 10653 10652 10650 10649 10648 10646 10646 10643 10641 10639 10637
10683 10684 10685 10687 10688 10689 10690 10692 10693 10694 10695 10696 10697 10697 10697 10698 10698 10699 10699 10699 10699 10699 10699 10700 10700 10700 10700 10700 10699 10698 10699 10698 10697 10696 10695 10694 10693 10692 10691 10690 10689 10688 10687 10686 10685 10684 10683 10682 10682 10681 10680 10680 10680 10679 10678 10677 10676 10673 10671 10671 10669 10667 10666 10665 10664 10662 10659 10658 10656 10656 10657 10655 10655 10656 10654 10650 10645 10642 10641 10639 10636 10635 10635 10635 10633 10631 10629 10627
10683 10683 10684 10685 10686 10687 10688 10689 10690 10691 10692 10693 10694 10694 10694 10694 10695 10695 10695 10696 10696 10696 10696 10696 10696 10696 10696 10696 10695 10694 10693 10692 10692 10691 10690 10689 10688 10687 10686 10685 10684 10683 10682 10681 10680 10679 10678 10677 10676 10675 10674 10673 10672 10672 10670 10669 10669 10665 10663 10662 10660 10659 10657 10655 10655 10654 10651 10649 10647 10648 10647 10644 10644 10644 10643 10642 10637 10633 10630 10628 10625 10624 10623 10623 10622 10620 10618 10616
10682 10682 10683 10683 10684 10685 10686 10686 10687 10688 10689 10690 10690 10690 10691 10691 10692 10692 10692 10692 10692 10692 10692 10692 10692 10691 10691 10691 10690 10689 10688 10687 10687 10685 10684 10683 10682 10681 10680 10679 10678 10677 10676 10675 10674 10673 10672 10671 10669 10669 10668 10666 10665 10664 10663 10661 10660 10658 10655 10652 10650 10651 10649 10646 10646 10645 10643 10640 10638 10639 10637 10634 10632 10632 10632 10631 10628 10624 10620 10617 10615 10613 10612 10610 10609 10607 10605 10604
10680 10681 10681 10682 10683 10683 10684 10684 10685 10685 10686 10686 10687 10687 10687 10688 10688 10688 10688 10688 10688 10688 10687 10687 10687 10687 10686 10686 10685 10684 10682 10682 10681 10679 10678 10677 10676 10674 10673 10672 10671 10670 10669 10668 10667 10666 10665 10663 10662 10661 10660 10659 10658 10656 10655 10653 10651 10650 10647 10644 10641 10641 10641 10639 10637 10636 10633 10630 10629 10628 10626 10625 10622 10619 10619 10619 10616 10613 10610 10607 10605 10603 10600 10598 10596 10594 10593 10591
10679 10679 10680 10680 10681 10681 10682 10682 10682 10682 10683 10683 10683 10684 10684 10684 10684 10684 10684 10684 10684 10684 10683 10683 10683 10682 10681 10681 10680 10678 10676 10675 10674 10673 10672 10670 10669 10668 10667 10666 10664 10663 10662 10660 10659 10658 10657 10656 10655 10654 10652 10652 10651 10649 10647 10645 10642 10641 10639 10636 10633 10633 10633 10631 10628 10628 10624 10619 10618 10617 10617 10617 10611 10607 10607 10607 10604 10601 10600 10597 10594 10591 10588 10585 10583 10581 10580 10578
10677 10678 10678 10678 10679 10679 10679 10679 10679 10680 10680 10680 10680 10680 10680 10680 10680 10680 10680 10680 10680 10680 10679 10679 10678 10677 10676 10675 10673 10672 10670 10669 10668 10666 10665 10664 10663 10662 10660 10659 10658 10656 10655 10653 10652 10651 10650 10649 10648 10646 10645 10645 10644 10642 10639 10636 10634 10633 10632 10629 10626 10624 10626 10624 10619 10618 10615 10611 10608 10606 10607 10608 10601 10595 10595 10595 10593 10590 10588 10586 10582 10580 10576 10574 10571 10569 10567 10564
10676 10676 10676 10677 10677 10677 10677 10677 10677 10677 10677 10677 10677 10677 10677 10677 10677 10677 10676 10676 10676 10675 10674 10673 10672 10670 10669 10668 10667 10666 10665 10663 10662 10660 10659 10657 10656 10655 10653 10651 10650 10648 10647 10646 10644 10643 10642 10641 10640 10638 10637 10638 10636 10633 10630 10627 10625 10624 10623 10622 10617 10613 10615 10617 10611 10608 10605 10600 10597 10594 10596 10597 10590 10585 10583 10582 10580 10577 10575 10572 10570 10567 10564 10562 10559 10556 10554 10551
10675 10675 10675 10675 10675 10675 10674 10674 10674 10674 10674 10674 10674 10674 10674 10674 10673 10673 10673 10672 10671 10670 10668 10667 10666 10664 10663 10662 10661 10660 10659 10657 10656 10654 10652 10650 10649 10647 10646 10644 10642 10640 10639 10638 10637 10636 10634 10633 10632 10630 10629 10629 10626 10623 10621 10618 10616 10616 10614 10611 10607 10602 10602 10605 10602 10599 10595 10590 10586 10581 10581 10582 10578 10574 10572 10569 10567 10564 10562 10559 10557 10554 10552 10549 10546 10543 10540 10538
10674 10674 10673 10673 10673 10672 10672 10672 10672 10671 10671 10671 10671 10671 10670 10670 10669 10669 10668 10667 10666 10664 10663 10662 10661 10659 10658 10656 10655 10654 10652 10651 10649 10647 10645 10643 10641 10639 10637 10636 10634 10632 10631 10630 10629 10627 10626 10625 10623 10623 10622 10619 10616 10613 10611 10608 10606 10608 10605 10598 10595 10593 10591 10592 10591 10585 10581 10580 10579 10572 10567 10567 10563 10560 10559 10557 10555 10552 10550 10547 10545 10542 10539 10536 10533 10530 10526 10523
10673 10672 10672 10671 10671 10670 10669 10669 10669 10669 10668 10668 10668 10667 10667 10666 10665 10664 10663 10662 10661 10660 10658 10657 10656 10654 10653 10651 10650 10648 10646 10644 10643 10641 10639 10636 10634 10632 10630 10628 10626 10625 10623 10622 10621 10619 10617 10615 10614 10613 10612 10608 10605 10604 10602 10597 10594 10597 10596 10588 10585 10582 10579 10580 10578 10571 10568 10569 10569 10562 10556 10554 10552 10548 10546 10544 10543 10540 10538 10535 10532 10529 10526 10523 10519 10516 10512 10509
10671 10671 10670 10669 10668 10668 10667 10667 10666 10666 10665 10665 10665 10664 10664 10663 10662 10661 10660 10658 10657 10656 10655 10653 10652 10650 10648 10647 10645 10643 10640 10638 10636 10634 10632 10629 10627 10625 10623 10621 10619 10618 10616 10614 10612 10610 10608 10606 10604 10603 10602 10598 10595 10594 10591 10587 10583 10583 10583 10579 10576 10572 10568 10567 10563 10557 10557 10559 10557 10551 10545 10542 10540 10538 10534 10532 10531 10528 10525 10522 10519 10516 10512 10509 10505 10502 10498 10495
10669 10669 10668 10667 10667 10666 10665 10665 10664 10664 10663 10663 10662 10662 10661 10660 10659 10658 10657 10655 10654 10653 10651 10650 10648 10646 10644 10642 10639 10637 10634 10632 10630 10628 10625 10622 10620 10618 10616 10614 10612 10610 10608 10606 10603 10601 10599 10597 10595 10593 10592 10589 10586 10583 10580 10578 10574 10571 10569 10567 10566 10562 10559 10557 10551 10545 10545 10547 10547 10540 10534 10531 10528 10526 10523 10520 10518 10515 10512 10509 10505 10502 10498 10494 10491 10488 10484 10480
10668 10667 10666 10665 10665 10664 10663 10663 10662 10662 10662 10661 10661 10660 10659 10658 10657 10656 10654 10653 10651 10649 10647 10645 10643 10641 10639 10636 10633 10631 10628 10626 10623 10621 10618 10616 10613 10611 10609 10607 10605 10602 10600 10598 10595 10592 10590 10588 10586 10584 10582 10579 10577 10574 10571 10568 10565 10562 10559 10556 10555 10552 10549 10547 10542 10537 10534 10535 10536 10530 10525 10522 10516 10515 10513 10509 10506 10502 10499 10495 10492 10488 10485 10481 10478 10474 10470 10466
10666 10665 10665 10664 10663 10662 10662 10662 10661 10661 10660 10660 10659 10658 10657 10656 10654 10653 10651 10649 10647 10645 10643 10641 10638 10636 10633 10630 10627 10624 10622 10619 10616 10614 10611 10609 10607 10604 10602 10600 10598 10595 10592 10591 10588 10585 10582 10580 10577 10575 10572 10570 10567 10565 10562 10560 10556 10553 10550 10547 10545 10542 10539 10536 10531 10527 10525 10526 10525 10519 10516 10512 10507 10504 10501 10498 10495 10489 10486 10482 10479 10476 10472 10468 10464 10460 10456 10452
10665 10664 10663 10663 10662 10662 10661 10661 10660 10660 10659 10658 10657 10656 10655 10653 10652 10650 10648 10645 10643 10640 10638 10635 10633 10630 10627 10624 10621 10618 10615 10612 10610 10607 10604 10603 10601 10599 10596 10594 10592 10589 10586 10584 10582 10579 10576 10574 10571 10568 10565 10562 10559 10557 10555 10552 10548 10544 10542 10539 10535 10533 10530 10525 10521 10517 10515 10516 10515 10509 10504 10501 10497 10493 10490 10487 10483 10477 10474 10470 10466 10463 10459 10454 10450 10446 10442 10438
10663 10663 10662 10662 10662 10661 10661 10660 10659 10659 10658 10657 10656 10654 10653 10651 10648 10646 10643 10641 10638 10635 10632 10629 10626 10623 10621 10618 10615 10612 10610 10607 10604 10602 10599 10598 10596 10593 10591 10589 10586 10584 10581 10579 10577 10573 10570 10567 10565 10562 10559 10556 10553 10550 10548 10546 10541 10536 10533 10531 10527 10524 10521 10517 10512 10508 10504 10506 10505 10499 10494 10491 10485 10481 10479 10475 10470 10465 10462 10458 10454 10450 10446 10441 10437 10433 10429 10425
10662 10662 10662 10662 10661 10661 10660 10659 10658 10657 10656 10655 10653 10652 10650 10647 10645 10642 10638 10635 10633 10629 10626 10624 10621 10617 10615 10612 10609 10607 10604 10602 10600 10597 10595 10593 10591 10588 10586 10584 10581 10579 10576 10573 10571 10569 10566 10562 10560 10556 10553 10550 10547 10544 10541 10539 10536 10531 10526 10523 10520 10516 10512 10509 10504 10499 10496 10496 10496 10491 10486 10483 10477 10471 10466 10462 10457 10454 10450 10446 10441 10438 10434 10430 10425 10421 10417 10412
10662 10662 10661 10661 10660 10660 10659 10658 10657 10656 10654 10652 10650 10648 10646 10643 10640 10637 10634 10630 10627 10624 10621 10618 10615 10612 10609 10607 10605 10602 10600 10597 10595 10593 10591 10589 10586 10584 10582 10579 10577 10574 10572 10569 10566 10564 10561 10558 10555 10552 10548 10545 10542 10538 10534 10531 10529 10526 10521 10517 10513 10509 10504 10500 10496 10491 10487 10485 10486 10482 10476 10475 10474 10465 10455 10450 10446 10442 10438 10433 10429 10425 10421 10417 10412 10408 10403 10399
10661 10661 10661 10660 10659 10659 10658 10657 10655 10654 10652 10650 10647 10644 10642 10639 10636 10633 10629 10626 10622 10618 10615 10613 10610 10608 10605 10603 10600 10598 10596 10593 10591 10589 10587 10585 10582 10580 10578 10576 10573 10570 10568 10565 10561 10559 10556 10553 10550 10547 10543 10540 10536 10532 10529 10525 10521 10518 10515 10511 10507 10502 10497 10493 10488 10482 10477 10473 10473 10472 10464 10462 10467 10461 10448 10441 10436 10431 10426 10422 10418 10413 10408 10403 10399 10394 10389 10384
10661 10661 10660 10659 10658 10658 10656 10655 10653 10651 10649 10646 10644 10641 10638 10635 10631 10628 10625 10620 10616 10613 10610 10608 10606 10604 10601 10599 10596 10594 10592 10589 10587 10585 10583 10581 10578 10576 10574 10572 10569 10566 10563 10560 10557 10553 10550 10548 10544 10541 10538 10534 10531 10527 10522 10519 10514 10510 10507 10503 10499 10494 10490 10485 10480 10474 10469 10464 10461 10458 10451 10447 10451 10450 10440 10433 10428 10421 10414 10409 10405 10401 10396 10391 10386 10381 10376 10371
10660 10660 10659 10658 10657 10656 10655 10653 10651 10648 10646 10643 10640 10637 10633 10630 10627 10623 10619 10615 10612 10609 10606 10604 10602 10600 10597 10595 10593 10590 10588 10586 10584 10582 10579 10577 10575 10572 10570 10567 10564 10561 10558 10555 10551 10548 10545 10542 10538 10535 10531 10528 10524 10520 10516 10512 10508 10503 10499 10495 10491 10486 10481 10476 10472 10465 10459 10456 10451 10446 10440 10435 10436 10434 10428 10423 10418 10412 10404 10397 10390 10386 10382 10376 10372 10367 10362 10356
10660 10659 10658 10657 10656 10654 10653 10651 10648 10646 10643 10640 10636 10633 10629 10626 10622 10618 10615 10611 10608 10605 10603 10600 10598 10596 10594 10592 10589 10587 10585 10583 10581 10578 10575 10573 10571 10568 10565 10563 10560 10556 10552 10549 10545 10542 10540 10537 10533 10530 10526 10522 10518 10514 10510 10506 10501 10496 10492 10487 10483 10479 10472 10467 10463 10456 10449 10445 10441 10436 10429 10423 10423 10421 10414 10409 10406 10401 10395 10387 10378 10372 10367 10362 10357 10351 10346 10341
10659 10658 10657 10656 10654 10652 10650 10648 10645 10643 10640 10636 10633 10629 10625 10621 10617 10614 10611 10608 10605 10602 10599 10597 10594 10592 10590 10588 10586 10584 10582 10580 10578 10575 10573 10570 10567 10564 10561 10558 10555 10552 10548 10544 10541 10537 10535 10532 10528 10525 10521 10517 10512 10507 10503 10499 10495 10490 10485 10480 10475 10471 10465 10458 10454 10448 10441 10434 10430 10425 10418 10409 10407 10406 10400 10394 10391 10387 10382 10377 10369 10362 10355 10349 10343 10337 10331 10326
10658 10657 10656 10654 10652 10650 10648 10645 10642 10639 10636 10632 10629 10625 10620 10616 10613 10610 10607 10604 10602 10599 10596 10594 10591 10589 10587 10585 10583 10581 10579 10577 10575 10573 10570 10568 10565 10562 10559 10555 10553 10550 10545 10540 10535 10530 10528 10526 10522 10519 10516 10512 10507 10502 10497 10492 10487 10483 10478 10472 10467 10462 10456 10450 10444 10439 10432 10424 10419 10415 10408 10399 10392 10388 10383 10378 10375 10371 10366 10361 10356 10350 10344 10337 10330 10323 10317 10311
10657 10656 10654 10652 10650 10648 10645 10643 10639 10636 10632 10628 10624 10620 10616 10613 10610 10607 10604 10602 10599 10596 10594 10591 10589 10587 10585 10583 10581 10579 10577 10575 10572 10569 10566 10563 10560 10557 10554 10550 10548 10545 10542 10538 10534 10528 10523 10520 10516 10512 10508 10504 10499 10494 10489 10484 10479 10474 10469 10463 10456 10450 10445 10439 10432 10426 10419 10412 10405 10401 10396 10389 10380 10373 10366 10361 10358 10354 10348 10343 10337 10332 10327 10321 10314 10308 10302 10295
10656 10654 10652 10650 10647 10645 10642 10639 10636 10632 10628 10624 10620 10616 10612 10609 10607 10604 10601 10599 10597 10594 10592 10590 10588 10586 10584 10582 10580 10577 10574 10571 10568 10565 10562 10559 10556 10553 10549 10546 10542 10539 10536 10533 10530 10526 10521 10516 10511 10506 10502 10497 10491 10485 10480 10474 10468 10463 10458 10452 10445 10439 10433 10428 10422 10416 10409 10401 10393 10387 10383 10377 10370 10364 10354 10347 10344 10339 10332 10326 10320 10315 10310 10304 10297 10292 10286 10280
10654 10652 10650 10648 10645 10642 10639 10636 10632 10628 10624 10620 10616 10613 10610 10607 10604 10602 10599 10597 10595 10592 10590 10588 10586 10584 10582 10580 10577 10574 10571 10568 10565 10562 10559 10556 10553 10550 10546 10542 10539 10535 10530 10525 10521 10517 10514 10510 10505 10500 10494 10489 10484 10477 10472 10466 10460 10453 10446 10441 10435 10429 10423 10416 10411 10407 10402 10394 10385 10377 10373 10367 10361 10355 10345 10338 10334 10327 10319 10312 10305 10300 10293 10287 10281 10275 10270 10264
10652 10650 10648 10645 10642 10639 10636 10633 10629 10625 10621 10617 10613 10610 10607 10605 10602 10599 10597 10595 10593 10591 10589 10587 10585 10582 10580 10578 10575 10572 10569 10566 10562 10559 10556 10552 10549 10545 10541 10538 10534 10530 10525 10521 10516 10510 10505 10500 10496 10492 10486 10481 10475 10469 10463 10456 10450 10444 10437 10430 10424 10418 10412 10405 10399 10394 10390 10386 10376 10366 10361 10356 10351 10346 10336 10328 10323 10315 10308 10302 10295 10288 10281 10273 10266 10260 10254 10249
10650 10648 10646 10643 10640 10637 10633 10629 10625 10621 10617 10614 10611 10608 10605 10603 10600 10597 10595 10593 10591 10589 10587 10585 10583 10581 10578 10575 10573 10570 10567 10563 10560 10556 10552 10549 10545 10542 10538 10534 10529 10525 10520 10515 10510 10505 10499 10494 10489 10483 10478 10472 10465 10459 10453 10447 10440 10434 10427 10420 10414 10407 10401 10395 10389 10382 10377 10374 10366 10354 10347 10342 10338 10334 10327 10317 10310 10302 10296 10291 10284 10277 10269 10261 10254 10247 10240 10234
10648 10646 10643 10640 10637 10634 10630 10626 10622 10618 10614 10611 10608 10606 10603 10600 10598 10596 10593 10591 10590 10588 10586 10584 10582 10579 10576 10573 10570 10567 10564 10560 10557 10554 10550 10546 10542 10538 10534 10530 10525 10521 10516 10511 10505 10499 10494 10488 10482 10476 10469 10463 10457 10449 10443 10436 10430 10423 10417 10411 10404 10397 10391 10385 10380 10374 10368 10364 10357 10345 10336 10330 10325 10322 10318 10309 10299 10291 10284 10278 10273 10266 10259 10252 10243 10236 10229 10222
10646 10644 10641 10638 10635 10631 10627 10623 10619 10615 10612 10609 10606 10603 10601 10598 10596 10594 10592 10590 10588 10586 10584 10582 10579 10576 10573 10570 10567 10564 10561 10557 10554 10550 10546 10542 10538 10534 10529 10525 10521 10516 10511 10506 10500 10494 10488 10482 10476 10470 10463 10457 10451 10443 10435 10426 10419 10412 10406 10400 10394 10389 10382 10375 10369 10364 10359 10355 10350 10341 10327 10318 10313 10309 10304 10298 10290 10282 10275 10266 10260 10255 10249 10242 10233 10225 10218 10211
10644 10641 10639 10636 10632 10628 10624 10620 10616 10613 10610 10607 10604 10601 10599 10596 10594 10592 10591 10589 10587 10584 10582 10579 10576 10573 10570 10567 10564 10560 10557 10554 10550 10547 10543 10538 10534 10530 10525 10520 10516 10511 10505 10500 10495 10489 10483 10476 10470 10463 10456 10449 10442 10435 10428 10420 10413 10405 10398 10391 10385 10380 10374 10367 10358 10351 10346 10340 10338 10336 10323 10309 10304 10299 10292 10286 10279 10272 10264 10255 10248 10241 10233 10226 10218 10210 10203 10196
10642 10639 10636 10633 10629 10625 10622 10618 10614 10610 10607 10604 10602 10599 10597 10595 10593 10591 10589 10587 10585 10582 10579 10577 10574 10570 10567 10564 10561 10557 10554 10550 10546 10543 10539 10534 10530 10526 10521 10516 10511 10506 10500 10495 10488 10482 10476 10470 10463 10456 10449 10442 10435 10427 10420 10413 10406 10399 10392 10383 10376 10371 10365 10360 10353 10343 10335 10329 10325 10326 10318 10304 10297 10291 10282 10274 10267 10260 10252 10244 10237 10228 10219 10210 10202 10196 10189 10180
10640 10637 10634 10630 10626 10623 10619 10615 10611 10608 10605 10603 10600 10598 10595 10594 10592 10590 10588 10585 10583 10580 10577 10574 10571 10568 10564 10561 10558 10554 10550 10547 10543 10539 10535 10531 10526 10521 10517 10512 10506 10500 10495 10488 10482 10475 10469 10462 10456 10449 10442 10435 10427 10419 10411 10403 10395 10388 10384 10378 10370 10364 10358 10354 10350 10339 10328 10321 10316 10313 10307 10297 10291 10284 10274 10266 10259 10251 10243 10236 10228 10219 10209 10200 10192 10184 10177 10169
10637 10634 10631 10627 10624 10620 10616 10612 10609 10606 10604 10601 10598 10596 10594 10592 10590 10588 10586 10583 10581 10578 10575 10571 10568 10565 10562 10559 10555 10551 10548 10544 10540 10536 10531 10527 10522 10518 10513 10507 10501 10495 10489 10483 10476 10470 10463 10456 10450 10442 10435 10427 10420 10412 10404 10397 10389 10380 10374 10369 10363 10358 10352 10347 10344 10334 10322 10313 10307 10303 10295 10287 10283 10277 10267 10260 10252 10243 10235 10228 10219 10210 10200 10192 10185 10177 10169 10161
10635 10632 10628 10625 10621 10618 10614 10610 10607 10605 10602 10599 10597 10595 10593 10591 10589 10587 10584 10581 10578 10575 10572 10569 10566 10563 10560 10556 10552 10549 10545 10541 10537 10532 10528 10523 10519 10514 10508 10503 10497 10490 10484 10477 10470 10464 10457 10451 10445 10439 10431 10424 10416 10409 10402 10395 10387 10378 10369 10362 10357 10353 10347 10342 10336 10327 10316 10306 10299 10296 10287 10277 10273 10268 10258 10250 10243 10234 10227 10219 10211 10202 10194 10186 10178 10169 10161 10153
10632 10629 10626 10622 10619 10615 10612 10609 10606 10603 10600 10598 10595 10593 10592 10589 10587 10585 10582 10579 10576 10573 10570 10567 10564 10560 10557 10554 10550 10546 10542 10538 10533 10529 10524 10520 10515 10510 10504 10498 10492 10486 10479 10472 10465 10459 10453 10447 10441 10436 10430 10423 10416 10408 10401 10394 10386 10378 10368 10359 10351 10345 10340 10334 10327 10319 10311 10301 10292 10290 10284 10270 10262 10257 10248 10240 10233 10225 10217 10209 10199 10191 10184 10177 10168 10160 10151 10143
10630 10627 10624 10620 10617 10613 10610 10607 10604 10601 10598 10596 10594 10592 10590 10588 10585 10583 10580 10577 10574 10571 10568 10564 10561 10558 10554 10551 10547 10543 10539 10534 10530 10525 10521 10516 10511 10506 10500 10494 10488 10481 10474 10467 10460 10454 10447 10442 10437 10430 10424 10419 10413 10405 10397 10389 10381 10373 10364 10354 10344 10337 10332 10327 10320 10312 10306 10297 10284 10278 10276 10266 10254 10246 10238 10229 10220 10212 10205 10195 10185 10177 10170 10163 10156 10148 10139 10131
10628 10625 10622 10618 10614 10611 10608 10605 10602 10600 10597 10595 10593 10590 10588 10586 10583 10580 10577 10575 10572 10569 10566 10562 10559 10555 10552 10548 10544 10540 10536 10531 10527 10522 10517 10512 10507 10501 10496 10490 10483 10476 10469 10462 10455 10448 10441 10435 10430 10424 10416 10410 10403 10396 10388 10380 10372 10363 10355 10347 10339 10331 10325 10319 10312 10304 10298 10291 10279 10267 10262 10258 10249 10238 10230 10221 10211 10202 10195 10186 10176 10168 10160 10152 10144 10136 10128 10120
10626 10623 10619 10616 10612 10609 10606 10603 10600 10598 10596 10593 10591 10589 10586 10584 10581 10578 10575 10573 10570 10567 10563 10560 10556 10553 10549 10545 10541 10537 10533 10528 10523 10518 10513 10508 10503 10497 10491 10485 10478 10472 10464 10457 10450 10443 10435 10429 10423 10418 10411 10403 10395 10388 10380 10372 10364 10355 10346 10339 10332 10325 10319 10312 10304 10296 10288 10283 10276 10264 10253 10247 10242 10232 10223 10217 10208 10198 10189 10179 10169 10160 10152 10144 10135 10126 10117 10109
10624 10620 10617 10613 10610 10607 10604 10601 10599 10596 10594 10592 10589 10587 10584 10581 10579 10576 10573 10570 10567 10564 10561 10557 10554 10551 10547 10544 10539 10535 10530 10525 10520 10514 10509 10504 10498 10492 10486 10480 10474 10467 10460 10452 10445 10438 10430 10423 10417 10411 10404 10398 10390 10382 10373 10365 10357 10350 10341 10333 10324 10317 10314 10309 10300 10291 10282 10273 10268 10261 10250 10241 10235 10227 10217 10209 10202 10193 10184 10174 10163 10153 10145 10136 10126 10117 10108 10098
10622 10618 10614 10611 10608 10605 10602 10599 10597 10595 10592 10590 10587 10585 10582 10579 10577 10574 10571 10568 10565 10562 10558 10555 10552 10549 10545 10541 10536 10532 10527 10521 10516 10511 10505 10500 10494 10488 10482 10475 10469 10462 10455 10447 10440 10433 10426 10419 10412 10405 10397 10391 10384 10376 10368 10360 10352 10345 10337 10329 10320 10311 10307 10303 10296 10288 10280 10270 10262 10256 10248 10238 10229 10220 10210 10201 10193 10185 10177 10167 10156 10145 10136 10127 10117 10108 10099 10090
10619 10616 10612 10609 10605 10603 10600 10598 10595 10593 10591 10588 10586 10583 10580 10577 10575 10572 10569 10566 10562 10559 10556 10552 10549 10546 10542 10537 10533 10528 10523 10518 10512 10507 10501 10496 10490 10483 10477 10470 10463 10457 10450 10443 10436 10429 10422 10415 10408 10401 10393 10385 10378 10371 10365 10358 10351 10343 10334 10326 10318 10309 10299 10294 10289 10282 10275 10268 10258 10249 10242 10233 10223 10213 10203 10193 10184 10176 10169 10160 10149 10138 10128 10118 10109 10100 10091 10083
10617 10613 10610 10607 10604 10601 10598 10596 10594 10591 10589 10586 10584 10581 10579 10576 10573 10569 10566 10563 10560 10556 10553 10550 10546 10542 10538 10534 10529 10524 10519 10514 10508 10503 10497 10491 10485 10479 10472 10465 10458 10451 10444 10438 10431 10424 10418 10411 10403 10396 10390 10383 10376 10370 10364 10356 10349 10341 10333 10325 10316 10306 10295 10287 10282 10276 10268 10261 10252 10242 10233 10224 10216 10207 10197 10187 10176 10168 10160 10152 10143 10132 10122 10111 10102 10094 10085 10076
10614 10610 10607 10604 10602 10599 10596 10594 10592 10589 10587 10585 10582 10580 10577 10573 10570 10567 10564 10560 10557 10554 10550 10547 10543 10539 10535 10530 10525 10520 10515 10510 10505 10499 10493 10486 10480 10473 10467 10460 10453 10446 10439 10432 10426 10419 10413 10407 10400 10393 10386 10380 10373 10366 10359 10353 10345 10337 10331 10324 10315 10304 10292 10282 10276 10270 10261 10253 10245 10236 10227 10218 10209 10200 10192 10183 10172 10162 10153 10144 10134 10124 10115 10105 10095 10085 10076 10067